WB7TUJ Weather Reports


Display with metric or nautical units.
time (UTC)temp
F
wind
direction
speed
MPH
gust
MPH
rain 1hr
in
rain 24hr
in
rain mn
in
humidity
%
barometer
mb
20260503013049 90 53 0.0 0.0 0.00 0.00 0.00 18 964.5
20260503011548 90 47 0.0 0.0 0.00 0.00 0.00 18 964.6
20260503010050 90 47 0.0 0.0 0.00 0.00 0.00 18 964.6
20260503004547 91 169 0.0 0.0 0.00 0.00 0.00 18 964.6
20260503003047 91 169 0.0 0.0 0.00 0.00 0.00 18 964.7
20260503001548 91 169 0.0 0.0 0.00 0.00 0.00 19 964.7
20260503000044 91 203 0.0 0.0 0.00 0.00 0.00 18 964.8
20260502234550 91 203 0.0 10.0 0.00 0.00 0.00 18 964.8
20260502233042 90 247 0.0 9.0 0.00 0.00 0.00 18 964.9
20260502231539 91 230 1.0 12.0 0.00 0.00 0.00 18 964.9
20260502230038 91 209 8.0 14.0 0.00 0.00 0.00 18 965.0
20260502224543 91 239 0.0 11.0 0.00 0.00 0.00 19 965.2
20260502223041 91 288 5.0 10.0 0.00 0.00 0.00 19 965.4
20260502221532 91 217 0.0 10.0 0.00 0.00 0.00 19 965.5
20260502220031 92 59 0.0 11.0 0.00 0.00 0.00 18 965.8
20260502214527 91 184 0.0 4.0 0.00 0.00 0.00 20 966.0
20260502213027 90 79 0.0 8.0 0.00 0.00 0.00 20 966.2
20260502211526 91 147 0.0 5.0 0.00 0.00 0.00 20 966.4
20260502210029 91 119 0.0 0.0 0.00 0.00 0.00 19 966.6
20260502204523 90 119 3.0 9.0 0.00 0.00 0.00 20 967.0
20260502203021 89 46 0.0 6.0 0.00 0.00 0.00 21 967.1
20260502201520 89 48 7.0 13.0 0.00 0.00 0.00 21 967.3
20260502200020 89 280 0.0 5.0 0.00 0.00 0.00 24 967.5
20260502194529 89 69 5.0 10.0 0.00 0.00 0.00 23 967.7
20260502193017 89 98 0.0 9.0 0.00 0.00 0.00 25 967.8
20260502191516 88 91 5.0 11.0 0.00 0.00 0.00 24 968.1
20260502190015 87 114 1.0 9.0 0.00 0.00 0.00 25 968.3
20260502184513 87 107 3.0 12.0 0.00 0.00 0.00 25 968.5
20260502183012 87 107 2.0 11.0 0.00 0.00 0.00 26 968.8
20260502181525 86 126 0.0 11.0 0.00 0.00 0.00 27 969.0
20260502163058 82 113 5.0 13.0 0.00 0.00 0.00 31 969.5
20260502161554 82 134 5.0 13.0 0.00 0.00 0.00 32 969.5
20260502151553 79 101 0.0 0.0 0.00 0.00 0.00 34 969.2
20260502123027 67 50 0.0 0.0 0.00 0.00 0.00 38 967.3
20260502121515 66 50 0.0 0.0 0.00 0.00 0.00 38 967.1
20260502114511 66 50 0.0 0.0 0.00 0.00 0.00 40 966.9
20260502113007 67 50 0.0 0.0 0.00 0.00 0.00 39 966.8
20260502111510 67 50 0.0 0.0 0.00 0.00 0.00 37 966.8
20260502110008 67 50 0.0 0.0 0.00 0.00 0.00 37 966.8
20260502104601 68 49 0.0 0.0 0.00 0.00 0.00 36 966.7
20260502103110 68 49 0.0 0.0 0.00 0.00 0.00 36 966.6
20260502101611 68 49 0.0 0.0 0.00 0.00 0.00 37 966.5
20260502100120 69 50 0.0 0.0 0.00 0.00 0.00 35 966.4
20260502071531 73 61 0.0 0.0 0.00 0.00 0.00 34 966.0
20260502070027 74 94 0.0 0.0 0.00 0.00 0.00 34 965.9
20260502064526 74 94 0.0 0.0 0.00 0.00 0.00 33 965.8
20260502063026 75 94 0.0 0.0 0.00 0.00 0.00 33 965.8
20260502061534 76 92 0.0 0.0 0.00 0.00 0.00 32 965.6
20260502060026 77 263 0.0 0.0 0.00 0.00 0.00 32 965.4
20260502054526 78 263 0.0 0.0 0.00 0.00 0.00 29 965.4
20260502053025 78 263 0.0 0.0 0.00 0.00 0.00 28 965.4
20260502051525 79 263 0.0 0.0 0.00 0.00 0.00 28 965.3
20260502050024 80 263 0.0 0.0 0.00 0.00 0.00 27 965.2
20260502044523 80 263 0.0 0.0 0.00 0.00 0.00 26 965.2
20260502043025 80 263 0.0 0.0 0.00 0.00 0.00 27 965.1
20260502041528 81 263 0.0 0.0 0.00 0.00 0.00 26 964.8
20260502040021 81 263 0.0 0.0 0.00 0.00 0.00 25 964.7
20260502034522 82 263 0.0 0.0 0.00 0.00 0.00 24 964.6
20260502033025 82 263 0.0 0.0 0.00 0.00 0.00 23 964.4
20260502031520 83 263 0.0 0.0 0.00 0.00 0.00 24 964.2
20260502030021 84 263 0.0 0.0 0.00 0.00 0.00 23 964.0
20260502024521 84 263 0.0 0.0 0.00 0.00 0.00 23 963.9
20260502023020 84 263 0.0 0.0 0.00 0.00 0.00 23 963.8
20260502021519 85 263 0.0 0.0 0.00 0.00 0.00 23 963.6
20260502020018 85 260 0.0 0.0 0.00 0.00 0.00 23 963.5
20260502014517 86 276 0.0 0.0 0.00 0.00 0.00 21 963.5